Regional Weather Roundup
Issued by NWS Grand Forks, ND

Home | Current Version | Previous Version | Text Only | Print | Product List | Glossary On
Versions: 1 2 3 4 5 6 7 8 9 10 11 12 13 14 15 16 17 18 19 20 21 22 23 24 25 26 27 28 29 30 31 32 33 34 35 36 37 38 39 40 41 42 43 44 45 46 47 48 49 50
000
ASUS43 KFGF 232031
RWRFGF
PRAIRIE TO PINES  WEATHER ROUNDUP
NATIONAL WEATHER SERVICE EASTERN NORTH DAKOTA/GRAND FORKS ND
200 PM CST THU NOV 23 2017

 **SATELLITE DATA USED TO AUGMENT SKY COVER AT AUTOMATED STATIONS**
 *****  WEATHER ACROSS EASTERN NORTH DAKOTA  *****

CITY           SKY/WX    TMP DP  RH WIND       PRES   REMARKS
GRAND FORKS    PTSUNNY   34  31  88 S14       29.62F WCI  25
GRAND FRKS AFB FAIR      34  30  86 S13       29.61F WCI  25
GRAND FRKS NWS   N/A     32 N/A N/A S9          N/A  WCI  24
DEVILS LAKE    FAIR      41  32  70 S6        29.57F
FARGO          FAIR      42  30  62 S13       29.67F
WAHPETON ARPT  NOT AVBL
$$

 ***** WEATHER ACROSS CENTRAL AND WESTERN NORTH DAKOTA  *****

CITY           SKY/WX    TMP DP  RH WIND       PRES   REMARKS
BISMARCK       FAIR      71  42  35 W12       29.62F
MINOT          FAIR      57  41  55 SW15      29.50F
JAMESTOWN      FAIR      56  40  55 SW9       29.61F
MINOT AFB      FAIR      57  41  55 SW16G23   29.48F
GARRISON         N/A     58  43  57 SW9       29.56F
WILLISTON      FAIR      59  40  49 S6        29.53F
DICKINSON      FAIR      69  37  30 W22G30    29.62F
HETTINGER      FAIR      71  36  27 W17       29.70F
$$

 *****  OTHER AIRPORT OBSERVATIONS IN OUR AREA  *****

CITY           SKY/WX    TMP DP  RH WIND       PRES   REMARKS
WALHALLA       FAIR      32  32 100 S13G21    29.57F WCI  22
GRAFTON AIRPOR CLOUDY    32  32 100 S17       29.64F WCI  21
VALLEY CITY AR FAIR      48  37  66 S8G15     29.64F
CANDO          FAIR      41  32  70 S12       29.55F
CAVALIER APRT  CLOUDY    32  30  93 S18       29.59F WCI  20
GWINNER          N/A     54  36  50 SW18      29.66F
SHEYENNE NWR     N/A     48  31  51 S8        29.95S
ROLLA          FAIR      39  34  81 SW17      29.49F
 ***** THE ABOVE OBSERVATIONS ARE NON NWS ARE NOT QUALITY
       CONTROLLED AND MAY MIS-REPORT RAIN FOR SNOW...
$$

  *****  WEATHER ACROSS NORTHERN MINNESOTA  *****

CITY           SKY/WX    TMP DP  RH WIND       PRES   REMARKS
FLAG ISLAND    CLOUDY    25  19  80 S8        29.67F WCI  16
WARROAD        PTSUNNY   30  27  86 SE7       29.66F WCI  23
ROSEAU         CLOUDY    30  27  86 SE9       29.65F WCI  22
HALLOCK        CLOUDY    32  30  93 S20       29.61F FOG     WCI  20
THF RVR FALLS  CLOUDY    29  29 100 S12       29.66F WCI  19
BAUDETTE       FAIR      31  23  72 S8        29.69F WCI  23
WASKISH        CLOUDY    28  25  86 SE5       29.69F WCI  23
CROOKSTON      FAIR      37  30  75 S17       29.64F
STEPHEN NDAWN    N/A     30  30 100 S13         N/A  WCI  20
GREENBUSH NDAW   N/A     30  28  93 S12         N/A  WCI  21
$$
  *****  WEATHER ACROSS CENTRAL AND WEST MINNESOTA  *****

CITY           SKY/WX    TMP DP  RH WIND       PRES   REMARKS
FOSSTON        FAIR      36  30  80 SE10      29.65F
BEMIDJI        FAIR      29  26  88 S8        29.69F WCI  21
PARK RAPIDS    FAIR      39  28  64 S10       29.71F
ELBOW LAKE     CLOUDY    44  28  55 SE13G21   29.72F
WADENA         FAIR      43  30  61 S8        29.71F
DETROIT LAKES  FAIR      41  30  65 SE12      29.69F
MOORHEAD       FAIR      43  27  52 S17       29.67F
FERGUS FALLS   PTSUNNY   45  28  53 S16       29.72F
MORRIS MN      FAIR      45  28  53 S16       29.73F
STAPLES        FAIR      43  27  52 S9        29.73F
$$
  *****  WEATHER ELSEWHERE ACROSS MINNESOTA  *****

CITY           SKY/WX    TMP DP  RH WIND       PRES   REMARKS
DULUTH         FAIR      34  25  69 SW10      29.76F
INTRNTL FALLS  CLOUDY    29  20  69 E3        29.71F
ELY            PTSUNNY   34  23  64 W8        29.72F
CLOQUET        FAIR      36  23  60 SW7       29.77F
WHEATON        FAIR      48  28  46 SE15      29.71F
BRAINERD       FAIR      40  26  57 S10       29.77F
HIBBING        FAIR      34  22  61 VRB5      29.74F
ALEXANDRIA     FAIR      44  28  53 S14       29.75F
SAINT CLOUD    FAIR      42  24  49 S9        29.81F
MINNEAPOLIS    FAIR      43  23  45 SW5       29.85F
$$

  *****  WEATHER ACROSS SOUTH DAKOTA  *****

CITY           SKY/WX    TMP DP  RH WIND       PRES   REMARKS
SIOUX FALLS    PTSUNNY   57  37  47 SW8       29.82F
BROOKINGS      FAIR      54  35  48 S14       29.78F
WATERTOWN      FAIR      55  37  50 S12       29.75F
HURON          FAIR      58  39  49 S13       29.76F
SISSETON         N/A     60  39  45 SW17      29.67F
ABERDEEN       FAIR      57  39  51 S15       29.71F
MITCHELL       FAIR      63  41  44 S8        29.79F
PIERRE         FAIR      66  42  41 SW7       29.74F
MOBRIDGE       FAIR      64  42  44 SE12      29.67F
RAPID CITY     FAIR      75  37  25 S12       29.80F
$$

  *****  SOME WEATHER IN NEARBY STATES *****

CITY           SKY/WX    TMP DP  RH WIND       PRES   REMARKS
GLASGOW MT     FAIR      71  37  28 W25G39    29.53F
GREAT FALLS MT FAIR      67  35  30 SW25G45   29.62F
CHEYENNE WY    FAIR      61  31  32 W17G24    30.08F
SCOTTSBLUFF NE FAIR      72  36  26 W23G31    29.93F
OMAHA NE       FAIR      59  36  42 S7        29.92F
DES MOINES IA  PTSUNNY   53  30  41 W7        29.94F
DAVENPORT IA   FAIR      47  25  42 SW7       29.94F
CHICAGO IL     FAIR      46  23  40 W10       29.91S
EAU CLAIRE WI  FAIR      41  19  41 SW7       29.86F
LA CROSSE WI   FAIR      43  22  43 CALM      29.90F
$$

  *****  SOME NATIONAL WEATHER *****

CITY           SKY/WX    TMP DP  RH WIND       PRES   REMARKS
LA GUARDIA NY  FAIR      44  18  35 NW6       30.01F
RALEIGH NC     PTSUNNY   48  25  40 CALM      30.07F
ATLANTA GA     FAIR      61  39  44 NE8       29.99F
NEW ORLEANS LA FAIR      61  31  32 N10       30.02F
OKLAHOMA CITY  PTSUNNY   68  30  24 VRB3      30.04F
ALBUQUERQUE NM PTSUNNY   62  31  31 CALM      30.26F
SALT LAKE CITY PTSUNNY   63  43  48 NW3       30.19F
LOS ANGELES CA PTSUNNY   85  46  25 W13       29.97F
BOISE ID       FAIR      61  45  55 SE7       30.02F
SEATTLE WA     CLOUDY    53  50  89 SW12      29.82S
$$

*** WEATHER ACROSS MANITOBA...SASKATCHEWAN AND ONTARIO ***
                ***ONTARIO***

CITY           SKY/WX    TMP DP  RH WIND       PRES   REMARKS
GERALDTON      PTSUNNY   18  10  73 NW8       29.75S WCI   7
THUNDER BAY    CLOUDY    30  21  69 NW6       29.79S WCI  24
SIOUX LOOKOUT  FLURRIES  18  12  79 CALM      29.73F
TORONTO        CLOUDY    37  18  44 SW14      29.92F
BIG TROUT LK   SUNNY      7  -2  66 W9        29.74S WCI  -7
PICKLE LAKE    FLURRIES   9   1  72 NW6       29.74S WCI  -1
DRYDEN         CLOUDY    23  18  80 SE5       29.69F WCI  17
KENORA         FLURRIES  23  19  86 S9        29.68F WCI  13
$$
                *** MANITOBA***

CITY           SKY/WX    TMP DP  RH WIND       PRES   REMARKS
BRANDON        PTSUNNY   30  25  80 SE10      29.48F WCI  21
DAUPHIN        PTSUNNY   25  19  80 E12       29.42F WCI  14
ISLAND LAKE    FLURRIES   7   1  78 SE9       29.67F WCI  -7
PILOT MOUND      N/A     34  30  86 S15         N/A  WCI  24
THE PAS        FLURRIES  12   7  79 SE17G25   29.40F WCI  -5
THOMPSON       CRYSTALS   1  -8  66 VRB2      29.60F
WINNIPEG       CLOUDY    27  21  80 SE10      29.62F WCI  17
LYNN LAKE      LGT SNOW   0  -4  85 SE10      29.43F VSB 3/4 WCI -17
CHURCHILL      PTCLDY    -2 -11  65 W13G20    29.57F WCI -21
GILLAM         MOCLDY     1  -9  60 SW7       29.65  WCI -11
$$
                ***SASKATCHEWAN***

CITY           SKY/WX    TMP DP  RH WIND       PRES   REMARKS
ESTEVAN        PTSUNNY   54  41  62 SW15      29.42F
KINDERSLEY     MOSUNNY   41  34  75 NW12G18   29.33S
LLOYDMINSTER   LGT RAIN  34  28  80 W18G24    29.29S WCI  23
PRINCE ALBERT  PTSUNNY   23  19  86 VRB2      29.24F
REGINA         PTSUNNY   41  36  81 SW8       29.33F
YORKTON        PTSUNNY   27  27 100 S14G20    29.30F WCI  15
N. BATTLEFORD  MOSUNNY   30  23  74 NW14      29.30S WCI  20
LA RONGE       LGT SNOW  12   9  85 SE6       29.28F WCI   3
SASKATOON      PTSUNNY   34  28  80 W13       29.24F WCI  25
SWIFT CURRENT  SUNNY     55  43  62 W17G28    29.35F
$$
NOTE: THESE ARE AUTOMATED STATIONS WITH LIMITED QUALITY CONTROL
      "FAIR" INDICATES FEW OR NO CLOUDS BELOW 12,000 FEET WITH NO
      SIGNIFICANT WEATHER AND/OR OBSTRUCTIONS TO VISIBILITY.
      SKY/WX - SKY CONDITION AND SIGNIFICANT WEATHER.
      TMP - AIR TEMPERATURE.    DP   - DEWPOINT TEMPERATURE.
      RH  - RELATIVE HUMIDITY.  PRES - PRESSURE.
      HX  - HEAT INDEX.         WCI  - WIND CHILL INDEX.
$



USA.gov is the U.S. government's official web portal to all federal, state and local government web resources and services.